Weather History for Kirksville, MO

Change the Weather History Date:

Monday, October 21, 2013

  Actual Average Record
Temperature  
Mean Temperature 42 °F 51 °F  
Max Temperature 53 °F 62 °F 84 °F (1978)
Min Temperature 31 °F 41 °F 22 °F (1930)
Degree Days  
Heating Degree Days 23 14  
Month to date heating degree days 190 224  
Since 1 July heating degree days 260 331  
Cooling Degree Days 0 0  
Month to date cooling degree days 32 10  
Year to date cooling degree days 1028 937  
Moisture  
Dew Point 32 °F    
Average Humidity 64    
Maximum Humidity 89    
Minimum Humidity 38    
Precipitation  
Precipitation 0.00 in 0.11 in 1.33 in (1941)
Month to date precipitation 0.65 2.34  
Year to date precipitation 32.23 33.86  
Sea Level Pressure  
Sea Level Pressure 30.04 in    
Wind  
Wind Speed 6 mph (NW)    
Max Wind Speed 16 mph    
Max Gust Speed 23 mph    
Visibility 10 miles    
Events      
T = Trace of Precipitation, MM = Missing Value Source: NWS Daily Summary

Daily Weather History Graph

Daily Weather History Graph

Search for Another Location

Airport:

Trip Planner

Search our weather history database for the weather conditions in past years. The results will help you decide how hot, cold, wet, or windy it might be!

Date:

Astronomy

Oct. 21, 2013 Rise Set
Actual Time 7:27 AM CDT 6:21 PM CDT
Civil Twilight 6:59 AM CDT 6:48 PM CDT
Nautical Twilight 6:28 AM CDT 7:20 PM CDT
Astronomical Twilight 5:56 AM CDT 7:51 PM CDT
Moon 8:14 PM CDT (10/21) 10:02 AM CDT (10/21)
Length of Visible Light 11h 49m
Length of Day
10h 53m
Waning Gibbous, 92% of the Moon is Illuminated
Oct 21
Waning Gibbous
Oct 26
Last Quarter
Nov 3
New
Nov 9
First Quarter
Nov 17
Full

Hourly Weather History & Observations

Time (CDT) Temp. Windchill Dew Point Humidity Pressure Visibility Wind Dir Wind Speed Gust Speed Precip Events Conditions
12:55 AM 53.1 °F - 39.9 °F 61% 29.94 in 10.0 mi NW 8.1 mph - N/A   Overcast
1:55 AM 52.0 °F - 39.0 °F 61% 29.95 in 10.0 mi NNW 8.1 mph - N/A   Overcast
2:55 AM 46.9 °F - 37.9 °F 71% 29.97 in 10.0 mi NW 6.9 mph - N/A   Clear
3:55 AM 44.1 °F 39.5 °F 37.9 °F 79% 29.99 in 10.0 mi NW 8.1 mph - N/A   Clear
4:27 AM 44.6 °F 40.2 °F 37.4 °F 76% 29.99 in 10.0 mi NW 8.1 mph - N/A   Mostly Cloudy
4:51 AM 42.8 °F 38.0 °F 37.4 °F 81% 30.00 in 10.0 mi NW 8.1 mph - N/A   Partly Cloudy
4:55 AM 42.1 °F 37.7 °F 37.0 °F 82% 30.01 in 10.0 mi NW 6.9 mph - N/A   Partly Cloudy
5:55 AM 39.9 °F 33.9 °F 33.1 °F 77% 30.03 in 10.0 mi NW 9.2 mph - N/A   Clear
6:53 AM 39.2 °F 35.0 °F 33.8 °F 81% 30.03 in 10.0 mi NNW 5.8 mph - N/A   Mostly Cloudy
6:55 AM 39.9 °F 35.1 °F 33.1 °F 77% 30.05 in 10.0 mi NNW 6.9 mph - N/A   Mostly Cloudy
7:40 AM 37.4 °F 31.4 °F 32.0 °F 81% 30.06 in 10.0 mi North 8.1 mph - N/A   Partly Cloudy
7:55 AM 37.9 °F 33.5 °F 30.9 °F 76% 30.08 in 10.0 mi North 5.8 mph - N/A   Clear
8:55 AM 39.0 °F - 32.0 °F 76% 30.10 in 10.0 mi Calm Calm - N/A   Clear
9:55 AM 44.1 °F 39.0 °F 32.0 °F 63% 30.11 in 10.0 mi NW 9.2 mph - N/A   Clear
10:55 AM 45.0 °F 38.5 °F 30.9 °F 58% 30.10 in 10.0 mi NW 13.8 mph 19.6 mph N/A   Overcast
11:55 AM 45.0 °F 39.7 °F 30.0 °F 56% 30.10 in 10.0 mi WNW 10.4 mph - N/A   Mostly Cloudy
12:55 PM 46.0 °F 41.0 °F 28.9 °F 51% 30.10 in 10.0 mi WNW 10.4 mph - N/A   Overcast
1:55 PM 50.0 °F - 27.0 °F 41% 30.06 in 10.0 mi West 13.8 mph 20.7 mph N/A   Scattered Clouds
2:55 PM 51.1 °F - 27.0 °F 39% 30.06 in 10.0 mi WNW 9.2 mph - N/A   Clear
3:55 PM 51.1 °F - 26.1 °F 38% 30.05 in 10.0 mi NW 11.5 mph 18.4 mph N/A   Mostly Cloudy
4:55 PM 50.0 °F - 27.0 °F 41% 30.05 in 10.0 mi West 6.9 mph - N/A   Overcast
5:55 PM 50.0 °F - 28.0 °F 43% 30.05 in 10.0 mi West 6.9 mph - N/A   Overcast
6:55 PM 48.0 °F - 30.0 °F 50% 30.05 in 10.0 mi Calm Calm - N/A   Overcast
7:55 PM 46.0 °F 44.8 °F 30.9 °F 56% 30.06 in 10.0 mi West 3.5 mph - N/A   Overcast
8:55 PM 41.0 °F - 30.9 °F 67% 30.07 in 10.0 mi Calm Calm - N/A   Mostly Cloudy
9:55 PM 36.0 °F - 30.0 °F 79% 30.07 in 10.0 mi Calm Calm - N/A   Clear
10:55 PM 33.1 °F - 28.9 °F 85% 30.06 in 10.0 mi Calm Calm - N/A   Clear
11:55 PM 34.0 °F - 30.9 °F 89% 30.06 in 10.0 mi Calm Calm - N/A   Mostly Cloudy